Regional Weather Roundup
Issued by NWS Newport/Morehead, NC

Current Version | Previous Version | Graphics & Text | Print | Product List | Glossary On
Versions: 1 2 3 4 5 6 7 8 9 10 11 12 13 14 15 16 17 18 19 20 21 22 23 24 25 26 27 28 29 30 31 32 33 34 35 36 37 38 39 40 41 42 43 44 45 46 47 48 49 50
000 ASUS42 KMHX 301825 RWRMHX WEATHER ROUNDUP FOR EASTERN NORTH CAROLINA NATIONAL WEATHER SERVICE NEWPORT/MOREHEAD CITY NC 200 PM EDT SUN APR 30 2017 NOTE: "FAIR" INDICATES FEW OR NO CLOUDS BELOW 12,000 FEET WITH NO SIGNIFICANT WEATHER AND/OR OBSTRUCTIONS TO VISIBILITY NCZ015>017-031-032-045>047-102-103-301900- NORTH COAST CITY SKY/WX TMP DP RH WIND PRES REMARKS EDENTON SUNNY 85 69 58 SW8 30.16S ELIZABETH CITY SUNNY 84 71 65 S16 30.15F KITTY HAWK PTCLDY 85 65 50 SW8 30.15S MANTEO PTSUNNY 80 71 74 S16 30.16F $$ NCZ045>047-081-094-103-104-301900- CENTRAL COAST CITY SKY/WX TMP DP RH WIND PRES REMARKS FRISCO MOSUNNY 79 71 76 SW12 30.21F HAZE $$ NCZ095-097-098-100-101-301900- SOUTHERN COAST CITY SKY/WX TMP DP RH WIND PRES REMARKS BEAUFORT CLOUDY 80 72 76 SW18G25 30.21S CEDAR ISLAND NOT AVBL JACKSONVILLE NOT AVBL PINEY ISLAND NOT AVBL WILMINGTON MOSUNNY 83 69 62 S17G23 30.20F $$ NCZ011>013-027>030-043-044-078>080-089-090>093-098-301900- COASTAL PLAIN CITY SKY/WX TMP DP RH WIND PRES REMARKS AHOSKIE N/A 84 69 61 S5 30.15S CLINTON CLOUDY 83 71 68 S6 30.17F ELIZABETHTOWN MOSUNNY 85 68 55 S12 30.17F GOLDSBORO CLOUDY 84 70 62 S10 30.15F GREENVILLE PTSUNNY 86 68 54 SW13 30.17S HAVELOCK PTSUNNY 81 68 64 S21G28 30.20F KENANSVILLE CLOUDY 82 70 65 SW9G20 30.17S KINSTON CLOUDY 86 66 51 SW12 30.17F NEW BERN PTSUNNY 82 69 64 S12 30.19F RICHLANDS MOSUNNY 84 72 67 S16G26 30.19R ROCKY MOUNT PTSUNNY 83 68 60 SW13G22 30.17S WASHINGTON MOSUNNY 85 68 56 S7G18 30.16S WHITEVILLE MOSUNNY 83 68 60 S12G21 30.18F $$ AMZ130-135-150-152-154-156-158-170-250-252-270-ANZ085-086-088-633-658-670-301900- MARINE OBSERVATIONS STATION/POSITION TIME TEMP WIND PRES WAVE SWELL AIR SEA DIR/SP/G HT/PER HT/PER (UTC) (F) (DEG/KT/KT) (MB) (FT/S) (FT/S) CHESAPEAKE LIGHT NOT AVBL 64 E VA BEACH 1750 63 60 200/ 8/ 10 1022.0 2/ 5 2/ 5 DUCK 1800 81 55 210/ 12/ 15 1020.6 2 E DUCK 1800 60 N/A 2/ 6 OREGON INLET 1800 76 78 190/ 18/ 23 1021.8 13E OREGON INLT 1748 65 N/A 2/ 7 2/ 7 HATTERAS CG 1800 76 74 210/ 8/ 12 1022.7 DIAMOND BUOY 1750 77 75 220/ 16/ 19 1022.9 3/ 4 2/ 7 CAPE LOOKOUT 1800 79 220/ 10/ 14 1022.7 BEAUFORT LAB 1800 77 72 210/ 11/ 18 1022.1 30 SE NEW RVR IN 1808 75 220/ 14/ 17 1023.2 30 SE NEW RVR IN 1813 74 N/A 4/ 5 27 SE WRIGHTSVLE 1808 76 74 200/ 14/ 19 1023.1 5 SE WRIGHTSVLE 1808 74 72 200/ 8/ 14 1023.1 225 S CAPE HAT 1750 74 76 160/ 12/ 14 1024.7 3/ 8 3/ 8 41 SE CHARLESTON 1800 77 76 160/ 14/ 19 1022.4 $$

USA.gov is the U.S. government's official web portal to all federal, state and local government web resources and services.